Date String (YYYY-MM-DD hh:mm:ss) UTC,Instrument flags,absolute air pressure of the measurement (hPa),sample flow rate (lpm),inlet stack bypass flow (lpm),air temperature of the measurement (°C),ambient temperature measured by the external sensor (°C),aerosol sample conditioner tube jacket temperature (°C),OPC LED temperature (°C),internal box temperature (°C),relative humidity of the measurement (%),span deviation,mass concentration of particles derived from Lorenz-Mie calculation of OPC scattering (μg/m³),mass concentration of particles derived from Lorenz-Mie calculation of OPC scattering (μg/m³),mass concentration of particles derived from Lorenz-Mie calculation of OPC scattering (μg/m³)
DateTimeUTC,F1_M11,P_M11,Q1_M11,Q2_M11,T1_M11,T2_M11,T3_M11,T4_M11,T5_M11,U1_M11,ZSPAN_M11,X0_M11,X2_M11,X1_M11
2023-06-06 00:00:00,SystemResetWarning,0833.6,5.00,000.00,029.3,028.3,000.0,037.7,030.8,25.6,0000.0,0009.04,0003.57,0002.63
2023-06-06 00:01:00,SystemResetWarning,0833.6,5.00,000.00,029.3,028.3,000.0,037.7,030.9,25.4,0000.0,0009.22,0003.62,0002.67
2023-06-06 00:02:00,SystemResetWarning,0833.6,5.01,000.00,029.3,028.3,000.0,037.7,030.9,24.7,0000.0,0009.39,0003.66,0002.70
2023-06-06 00:03:00,SystemResetWarning,0833.6,5.01,000.00,029.3,028.3,000.0,037.7,030.9,24.9,0000.0,0009.27,0003.73,0002.74
2023-06-06 00:04:00,SystemResetWarning,0833.6,5.00,000.00,029.3,028.3,000.0,037.7,030.9,25.2,0000.0,0009.30,0003.76,0002.76
2023-06-06 00:05:00,SystemResetWarning,0833.6,5.00,000.00,029.4,028.3,000.0,037.8,030.9,25.2,0000.0,0009.35,0003.79,0002.77
2023-06-06 00:06:00,SystemResetWarning,0833.5,5.00,000.00,029.4,028.3,000.0,037.8,030.9,25.4,0000.0,0009.13,0003.84,0002.80
2023-06-06 00:07:00,SystemResetWarning,0833.4,5.00,000.00,029.4,028.3,000.0,037.8,030.9,25.6,0000.0,0008.97,0003.86,0002.82
2023-06-06 00:08:00,SystemResetWarning,0833.4,5.00,000.00,029.4,028.3,000.0,037.8,030.9,25.6,0000.0,0008.92,0003.88,0002.81
2023-06-06 00:09:00,SystemResetWarning,0833.4,5.00,000.00,029.4,028.3,000.0,037.9,030.9,26.0,0000.0,0009.28,0003.88,0002.84
2023-06-06 00:10:00,SystemResetWarning,0833.4,5.00,000.00,029.4,028.3,000.0,037.9,030.9,26.1,0000.0,0009.21,0003.92,0002.86
2023-06-06 00:11:00,SystemResetWarning,0833.4,5.00,000.00,029.4,028.3,000.0,037.9,030.9,26.0,0000.0,0009.63,0003.94,0002.88
2023-06-06 00:12:00,SystemResetWarning,0833.4,5.00,000.00,029.4,028.3,000.0,037.9,031.0,26.0,0000.0,0009.43,0003.89,0002.87
2023-06-06 00:13:00,SystemResetWarning,0833.4,5.00,000.00,029.5,028.3,000.0,037.9,031.0,26.1,0000.0,0009.40,0003.90,0002.88
2023-06-06 00:14:00,SystemResetWarning,0833.4,5.00,000.00,029.5,028.3,000.0,037.9,031.0,25.8,0000.0,0009.27,0003.86,0002.88
2023-06-06 00:15:00,SystemResetWarning,0833.4,5.00,000.00,029.5,028.4,000.0,037.9,031.0,25.6,0000.0,0009.26,0003.85,0002.88
2023-06-06 00:16:00,SystemResetWarning,0833.4,5.00,000.00,029.5,028.4,000.0,038.0,031.0,25.5,0000.0,0009.35,0003.83,0002.86
2023-06-06 00:17:00,SystemResetWarning,0833.5,4.99,000.00,029.5,027.1,000.0,037.9,031.1,25.3,0000.0,0008.98,0003.76,0002.82
2023-06-06 00:18:00,SystemResetWarning,0833.4,5.00,000.00,029.5,025.2,000.0,037.9,031.0,25.5,0000.0,0008.96,0003.73,0002.78
2023-06-06 00:19:00,SystemResetWarning,0833.4,5.00,000.00,029.5,024.8,000.0,037.8,030.8,25.9,0000.0,0009.52,0003.71,0002.76
2023-06-06 00:20:00,SystemResetWarning,0833.5,5.01,000.00,029.4,025.1,000.0,037.8,030.5,26.3,0000.0,0009.15,0003.66,0002.71
2023-06-06 00:21:00,SystemResetWarning,0833.4,5.00,000.00,029.3,025.5,000.0,037.8,030.5,26.4,0000.0,0009.08,0003.62,0002.65
2023-06-06 00:22:00,SystemResetWarning,0833.5,4.99,000.00,029.3,025.9,000.0,037.8,030.5,26.4,0000.0,0008.78,0003.56,0002.60
2023-06-06 00:23:00,SystemResetWarning,0833.5,5.00,000.00,029.3,026.3,000.0,037.8,030.5,26.6,0000.0,0008.93,0003.53,0002.56
2023-06-06 00:24:00,SystemResetWarning,0833.5,5.00,000.00,029.2,026.6,000.0,037.8,030.6,26.4,0000.0,0008.98,0003.53,0002.55
2023-06-06 00:25:00,SystemResetWarning,0833.5,5.01,000.00,029.2,026.9,000.0,037.8,030.6,26.6,0000.0,0008.91,0003.50,0002.52
2023-06-06 00:26:00,SystemResetWarning,0833.5,4.99,000.00,029.2,027.1,000.0,037.8,030.6,26.9,0000.0,0008.75,0003.47,0002.51
2023-06-06 00:27:00,SystemResetWarning,0833.5,4.98,000.00,029.2,027.3,000.0,037.8,030.6,26.8,0000.0,0008.92,0003.41,0002.48
2023-06-06 00:28:00,SystemResetWarning,0833.5,5.00,000.00,029.2,027.4,000.0,037.8,030.6,26.9,0000.0,0008.98,0003.42,0002.48
2023-06-06 00:29:00,SystemResetWarning,0833.5,5.00,000.00,029.2,027.5,000.0,037.8,030.7,27.2,0000.0,0009.40,0003.43,0002.48
2023-06-06 00:30:00,SystemResetWarning,0833.5,5.01,000.00,029.2,027.6,000.0,037.8,030.7,27.3,0000.0,0008.82,0003.39,0002.45
2023-06-06 00:31:00,SystemResetWarning,0833.5,5.01,000.00,029.2,027.7,000.0,037.8,030.7,27.2,0000.0,0008.57,0003.36,0002.45
2023-06-06 00:32:00,SystemResetWarning,0833.4,5.00,000.00,029.2,027.8,000.0,037.8,030.7,26.9,0000.0,0008.23,0003.34,0002.42
2023-06-06 00:33:00,SystemResetWarning,0833.4,4.99,000.00,029.3,027.8,000.0,037.8,030.7,26.5,0000.0,0007.86,0003.30,0002.40
2023-06-06 00:34:00,SystemResetWarning,0833.4,5.00,000.00,029.3,027.9,000.0,037.8,030.8,26.6,0000.0,0007.90,0003.30,0002.39
2023-06-06 00:35:00,SystemResetWarning,0833.4,4.99,000.00,029.3,027.9,000.0,037.8,030.8,26.6,0000.0,0007.72,0003.25,0002.34
2023-06-06 00:36:00,SystemResetWarning,0833.4,5.00,000.00,029.3,027.9,000.0,037.8,030.8,26.4,0000.0,0007.67,0003.22,0002.31
2023-06-06 00:37:00,SystemResetWarning,0833.4,5.00,000.00,029.3,028.0,000.0,037.8,030.8,26.7,0000.0,0007.69,0003.23,0002.30
2023-06-06 00:38:00,SystemResetWarning,0833.4,5.00,000.00,029.3,028.0,000.0,037.8,030.9,26.7,0000.0,0006.97,0003.23,0002.30
2023-06-06 00:39:00,SystemResetWarning,0833.4,5.00,000.00,029.3,028.1,000.0,037.8,030.9,26.6,0000.0,0007.00,0003.22,0002.29
2023-06-06 00:40:00,SystemResetWarning,0833.4,5.00,000.00,029.4,028.1,000.0,037.8,030.9,26.6,0000.0,0006.86,0003.21,0002.26
2023-06-06 00:41:00,SystemResetWarning,0833.4,5.00,000.00,029.4,028.1,000.0,037.9,030.9,26.4,0000.0,0007.52,0003.21,0002.26
2023-06-06 00:42:00,SystemResetWarning,0833.4,5.00,000.00,029.4,028.1,000.0,037.9,030.9,26.1,0000.0,0007.51,0003.17,0002.23
2023-06-06 00:43:00,SystemResetWarning,0833.4,5.00,000.00,029.4,028.2,000.0,037.9,030.9,26.2,0000.0,0007.49,0003.15,0002.23
2023-06-06 00:44:00,SystemResetWarning,0833.5,5.00,000.00,029.4,028.2,000.0,037.9,031.0,26.2,0000.0,0007.50,0003.15,0002.22
2023-06-06 00:45:00,SystemResetWarning,0833.4,5.00,000.00,029.5,028.2,000.0,037.9,031.0,25.8,0000.0,0007.18,0003.14,0002.21
2023-06-06 00:46:00,SystemResetWarning,0833.4,5.00,000.00,029.5,028.2,000.0,037.9,031.0,25.0,0000.0,0006.92,0003.10,0002.18
2023-06-06 00:47:00,SystemResetWarning,0833.4,5.00,000.00,029.5,028.2,000.0,037.9,031.0,25.5,0000.0,0006.95,0003.09,0002.16
2023-06-06 00:48:00,SystemResetWarning,0833.4,5.00,000.00,029.5,028.3,000.0,038.0,031.1,25.5,0000.0,0006.64,0002.97,0002.13
2023-06-06 00:49:00,SystemResetWarning,0833.4,5.00,000.00,029.5,028.3,000.0,038.0,031.1,25.2,0000.0,0006.64,0002.97,0002.12
2023-06-06 00:50:00,SystemResetWarning,0833.4,4.99,000.00,029.6,028.3,000.0,038.0,031.1,25.9,0000.0,0006.37,0002.92,0002.12
2023-06-06 00:51:00,SystemResetWarning,0833.4,5.00,000.00,029.6,028.3,000.0,038.0,031.1,26.0,0000.0,0005.92,0002.84,0002.13
2023-06-06 00:52:00,SystemResetWarning,0833.4,5.00,000.00,029.6,028.4,000.0,038.0,031.2,25.9,0000.0,0004.44,0002.76,0002.11
2023-06-06 00:53:00,SystemResetWarning,0833.4,5.00,000.00,029.6,028.4,000.0,038.0,031.2,26.2,0000.0,0004.21,0002.75,0002.12
2023-06-06 00:54:00,SystemResetWarning,0833.4,5.00,000.00,029.7,028.4,000.0,038.1,031.3,26.6,0000.0,0004.17,0002.73,0002.12
2023-06-06 00:55:00,SystemResetWarning,0833.4,5.00,000.00,029.7,028.4,000.0,038.1,031.3,26.6,0000.0,0004.15,0002.72,0002.12
2023-06-06 00:56:00,SystemResetWarning,0833.4,5.00,000.00,029.7,028.4,000.0,038.1,031.3,26.6,0000.0,0004.17,0002.74,0002.15
2023-06-06 00:57:00,SystemResetWarning,0833.4,5.00,000.00,029.7,028.5,000.0,038.1,031.3,27.0,0000.0,0004.22,0002.72,0002.15
2023-06-06 00:58:00,SystemResetWarning,0833.5,5.00,000.00,029.7,028.5,000.0,038.1,031.3,26.9,0000.0,0004.38,0002.69,0002.16
2023-06-06 00:59:00,SystemResetWarning,0833.5,5.00,000.00,029.8,028.3,000.0,038.2,031.3,27.4,0000.0,0004.50,0002.73,0002.19
